Weather History for MRLB - April, 2014

Change the Weather History Date:

Thursday, April 3, 2014

  Actual Average Record
Temperature  
Mean Temperature 82 °F -  
Max Temperature 97 °F 93 °F - ()
Min Temperature 66 °F 76 °F - ()
Cooling Degree Days 16    
Growing Degree Days 32 (Base 50)    
Moisture  
Dew Point 62 °F    
Average Humidity 43    
Maximum Humidity 83    
Minimum Humidity 25    
Precipitation  
Precipitation 0.00 in - - ()
Sea Level Pressure  
Sea Level Pressure 29.82 in    
Wind  
Wind Speed 10 mph ()    
Max Wind Speed 20 mph    
Max Gust Speed 23 mph    
Visibility 8.5 miles    
Events      
T = Trace of Precipitation, MM = Missing Value Source: Averaged Metar Reports

Daily Weather History Graph

Daily Weather History Graph

Search for Another Location

Airport or City:

Trip Planner

Search our weather history database for the weather conditions in past years. The results will help you decide how hot, cold, wet, or windy it might be!

Date:

Astronomy

Apr. 03, 2014 Rise Set
Actual Time 5:38 AM CST 5:52 PM CST
Civil Twilight 5:16 AM CST 6:14 PM CST
Nautical Twilight 4:52 AM CST 6:38 PM CST
Astronomical Twilight 4:27 AM CST 7:03 PM CST
Moon 8:41 AM CST (4/3) 9:34 PM CST (4/3)
Length of Visible Light 12h 57m
Length of Day
12h 14m
Waxing Crescent, 18% of the Moon is Illuminated
Apr 3
Waxing Crescent
Apr 7
First Quarter
Apr 15
Full
Apr 22
Last Quarter
Apr 29
New

Hourly Weather History & Observations

Time (CST) Temp. Heat Index Dew Point Humidity Pressure Visibility Wind Dir Wind Speed Gust Speed Precip Events Conditions
6:00 AM 67 °F - 62 °F 79% 29.84 in 12 mi NE 6.9 mph - -  
6:00 AM 68.0 °F - 62.6 °F 83% 29.83 in - NE 6.9 mph - N/A   Clear
7:00 AM 77.0 °F - 62.6 °F 61% 29.85 in - SE 5.8 mph - N/A   Clear
8:00 AM 80.6 °F 81.8 °F 62.6 °F 54% 29.88 in - NW 4.6 mph - N/A   Clear
9:00 AM 89 °F - 60 °F 27% 29.88 in 12 mi ENE 16.1 mph - -  
9:00 AM 89.6 °F 88.9 °F 59.0 °F 36% 29.88 in - ENE 16.1 mph - N/A   Clear
10:00 AM 91.4 °F 90.7 °F 59.0 °F 34% 29.86 in - ENE 15.0 mph - N/A   Clear
11:00 AM 91.4 °F 91.4 °F 60.8 °F 36% 29.85 in - East 12.7 mph - N/A   Clear
12:00 PM 94 °F - 62 °F 25% 29.83 in 12 mi East 11.5 mph - -   Scattered Clouds
12:00 PM 95.0 °F 96.0 °F 62.6 °F 34% 29.82 in 6.2 mi East 11.5 mph - N/A   Scattered Clouds
1:00 PM 95.0 °F 96.0 °F 62.6 °F 34% 29.81 in 6.2 mi East 12.7 mph - N/A   Scattered Clouds
2:00 PM 95.0 °F 96.0 °F 62.6 °F 34% 29.78 in 6.2 mi East 11.5 mph - N/A   Scattered Clouds
2:13 PM 95.0 °F 96.0 °F 62.6 °F 34% 29.78 in 6.2 mi East 11.5 mph - N/A   Scattered Clouds
3:00 PM 95.0 °F 96.0 °F 62.6 °F 34% 29.76 in 6.2 mi ENE 11.5 mph 23.0 mph N/A   Scattered Clouds
4:00 PM 95.0 °F 96.0 °F 62.6 °F 34% 29.75 in 6.2 mi ENE 16.1 mph - N/A   Scattered Clouds
5:00 PM 91.4 °F 92.1 °F 62.6 °F 38% 29.75 in - ENE 19.6 mph - N/A   Clear
6:00 PM 88 °F - 64 °F 35% 29.81 in 12 mi ENE 16.1 mph - -   Clear
6:00 PM 87.8 °F 89.4 °F 64.4 °F 46% 29.78 in - ENE 16.1 mph - N/A   Clear
7:00 PM 86.0 °F 88.2 °F 66.2 °F 51% 29.79 in - East 11.5 mph - N/A   Clear
8:00 PM 84.2 °F 85.6 °F 64.4 °F 51% 29.81 in - East 11.5 mph - N/A   Clear